Year,Month,Day,Hour,Minute,Value (Times are PST for temperature in C)
2012,07,07,00,00,13.10
2012,07,07,00,01,13.10
2012,07,07,00,02,13.10
2012,07,07,00,03,13.10
2012,07,07,00,04,13.10
2012,07,07,00,05,13.00
2012,07,07,00,06,13.00
2012,07,07,00,07,13.00
2012,07,07,00,08,13.00
2012,07,07,00,09,13.00
2012,07,07,00,10,13.00
2012,07,07,00,11,12.90
2012,07,07,00,12,12.90
2012,07,07,00,13,12.90
2012,07,07,00,14,12.90
2012,07,07,00,15,12.90
2012,07,07,00,16,12.90
2012,07,07,00,17,12.90
2012,07,07,00,18,12.90
2012,07,07,00,19,12.90
2012,07,07,00,20,12.90
2012,07,07,00,21,12.90
2012,07,07,00,22,12.90
2012,07,07,00,23,12.90
2012,07,07,00,24,12.90
2012,07,07,00,25,12.90
2012,07,07,00,26,12.90
2012,07,07,00,27,12.90
2012,07,07,00,28,12.90
2012,07,07,00,29,12.90
2012,07,07,00,30,12.90
2012,07,07,00,31,12.80
2012,07,07,00,32,12.80
2012,07,07,00,33,12.80
2012,07,07,00,34,12.80
2012,07,07,00,35,12.80
2012,07,07,00,36,12.80
2012,07,07,00,37,12.80
2012,07,07,00,38,12.80
2012,07,07,00,39,12.80
2012,07,07,00,40,12.70
2012,07,07,00,41,12.70
2012,07,07,00,42,12.70
2012,07,07,00,43,12.70
2012,07,07,00,44,12.70
2012,07,07,00,45,12.70
2012,07,07,00,46,12.70
2012,07,07,00,47,12.70
2012,07,07,00,48,12.70
2012,07,07,00,49,12.70
2012,07,07,00,50,12.70
2012,07,07,00,51,12.70
2012,07,07,00,52,12.70
2012,07,07,00,53,12.70
2012,07,07,00,54,12.60
2012,07,07,00,55,12.60
2012,07,07,00,56,12.60
2012,07,07,00,57,12.60
2012,07,07,00,58,12.60
2012,07,07,00,59,12.60
2012,07,07,01,00,12.60
2012,07,07,01,01,12.60
2012,07,07,01,02,12.60
2012,07,07,01,03,12.50
2012,07,07,01,04,12.50
2012,07,07,01,05,12.50
2012,07,07,01,06,12.40
2012,07,07,01,07,12.40
2012,07,07,01,08,12.40
2012,07,07,01,09,12.40
2012,07,07,01,10,12.40
2012,07,07,01,11,12.40
2012,07,07,01,12,12.30
2012,07,07,01,13,12.30
2012,07,07,01,14,12.30
2012,07,07,01,15,12.30
2012,07,07,01,16,12.30
2012,07,07,01,17,12.30
2012,07,07,01,18,12.30
2012,07,07,01,19,12.30
2012,07,07,01,20,12.30
2012,07,07,01,21,12.30
2012,07,07,01,22,12.30
2012,07,07,01,23,12.20
2012,07,07,01,24,12.20
2012,07,07,01,25,12.20
2012,07,07,01,26,12.20
2012,07,07,01,27,12.20
2012,07,07,01,28,12.20
2012,07,07,01,29,12.20
2012,07,07,01,30,12.20
2012,07,07,01,31,12.20
2012,07,07,01,32,12.20
2012,07,07,01,33,12.10
2012,07,07,01,34,12.10
2012,07,07,01,35,12.10
2012,07,07,01,36,12.10
2012,07,07,01,37,12.10
2012,07,07,01,38,12.10
2012,07,07,01,39,12.10
2012,07,07,01,40,12.10
2012,07,07,01,41,12.10
2012,07,07,01,42,12.10
2012,07,07,01,43,12.10
2012,07,07,01,44,12.10
2012,07,07,01,45,12.10
2012,07,07,01,46,12.10
2012,07,07,01,47,12.10
2012,07,07,01,48,12.10
2012,07,07,01,49,12.00
2012,07,07,01,50,12.10
2012,07,07,01,51,12.00
2012,07,07,01,52,12.00
2012,07,07,01,53,12.00
2012,07,07,01,54,12.00
2012,07,07,01,55,12.00
2012,07,07,01,56,11.90
2012,07,07,01,57,11.90
2012,07,07,01,58,11.90
2012,07,07,01,59,11.90
2012,07,07,02,00,11.90
2012,07,07,02,01,11.90
2012,07,07,02,02,11.90
2012,07,07,02,03,11.90
2012,07,07,02,04,11.90
2012,07,07,02,05,11.90
2012,07,07,02,06,11.80
2012,07,07,02,07,11.80
2012,07,07,02,08,11.80
2012,07,07,02,09,11.80
2012,07,07,02,10,11.80
2012,07,07,02,11,11.80
2012,07,07,02,12,11.80
2012,07,07,02,13,11.80
2012,07,07,02,14,11.80
2012,07,07,02,15,11.70
2012,07,07,02,16,11.70
2012,07,07,02,17,11.70
2012,07,07,02,18,11.70
2012,07,07,02,19,11.70
2012,07,07,02,20,11.70
2012,07,07,02,21,11.70
2012,07,07,02,22,11.60
2012,07,07,02,23,11.70
2012,07,07,02,24,11.60
2012,07,07,02,25,11.60
2012,07,07,02,26,11.60
2012,07,07,02,27,11.60
2012,07,07,02,28,11.60
2012,07,07,02,29,11.60
2012,07,07,02,30,11.60
2012,07,07,02,31,11.60
2012,07,07,02,32,11.60
2012,07,07,02,33,11.60
2012,07,07,02,34,11.60
2012,07,07,02,35,11.60
2012,07,07,02,36,11.60
2012,07,07,02,37,11.60
2012,07,07,02,38,11.60
2012,07,07,02,39,11.60
2012,07,07,02,40,11.60
2012,07,07,02,41,11.60
2012,07,07,02,42,11.60
2012,07,07,02,43,11.60
2012,07,07,02,44,11.60
2012,07,07,02,45,11.60
2012,07,07,02,46,11.50
2012,07,07,02,47,11.50
2012,07,07,02,48,11.50
2012,07,07,02,49,11.50
2012,07,07,02,50,11.40
2012,07,07,02,51,11.40
2012,07,07,02,52,11.40
2012,07,07,02,53,11.40
2012,07,07,02,54,11.40
2012,07,07,02,55,11.40
2012,07,07,02,56,11.40
2012,07,07,02,57,11.40
2012,07,07,02,58,11.40
2012,07,07,02,59,11.40
2012,07,07,03,00,11.40
2012,07,07,03,01,11.40
2012,07,07,03,02,11.40
2012,07,07,03,06,11.30
2012,07,07,03,07,11.30
2012,07,07,03,08,11.30
2012,07,07,03,09,11.30
2012,07,07,03,10,11.30
2012,07,07,03,11,11.30
2012,07,07,03,12,11.30
2012,07,07,03,13,11.30
2012,07,07,03,14,11.30
2012,07,07,03,15,11.20
2012,07,07,03,16,11.20
2012,07,07,03,17,11.20
2012,07,07,03,18,11.20
2012,07,07,03,19,11.20
2012,07,07,03,20,11.20
2012,07,07,03,21,11.20
2012,07,07,03,22,11.20
2012,07,07,03,23,11.20
2012,07,07,03,24,11.20
2012,07,07,03,25,11.20
2012,07,07,03,26,11.20
2012,07,07,03,27,11.20
2012,07,07,03,28,11.20
2012,07,07,03,29,11.10
2012,07,07,03,30,11.10
2012,07,07,03,31,11.10
2012,07,07,03,32,11.10
2012,07,07,03,33,11.10
2012,07,07,03,34,11.10
2012,07,07,03,35,11.10
2012,07,07,03,36,11.10
2012,07,07,03,37,11.10
2012,07,07,03,38,11.10
2012,07,07,03,39,11.10
2012,07,07,03,40,11.10
2012,07,07,03,41,11.10
2012,07,07,03,42,11.00
2012,07,07,03,43,11.00
2012,07,07,03,44,11.00
2012,07,07,03,45,11.00
2012,07,07,03,46,11.00
2012,07,07,03,47,10.90
2012,07,07,03,48,10.90
2012,07,07,03,49,10.90
2012,07,07,03,50,10.90
2012,07,07,03,51,10.90
2012,07,07,03,52,10.90
2012,07,07,03,53,10.80
2012,07,07,03,54,10.80
2012,07,07,03,55,10.80
2012,07,07,03,56,10.80
2012,07,07,03,57,10.80
2012,07,07,03,58,10.80
2012,07,07,03,59,10.80
2012,07,07,04,00,10.80
2012,07,07,04,01,10.80
2012,07,07,04,02,10.80
2012,07,07,04,03,10.70
2012,07,07,04,04,10.70
2012,07,07,04,05,10.70
2012,07,07,04,06,10.70
2012,07,07,04,07,10.70
2012,07,07,04,08,10.70
2012,07,07,04,09,10.70
2012,07,07,04,10,10.70
2012,07,07,04,11,10.70
2012,07,07,04,12,10.70
2012,07,07,04,13,10.70
2012,07,07,04,14,10.60
2012,07,07,04,15,10.60
2012,07,07,04,16,10.60
2012,07,07,04,17,10.60
2012,07,07,04,18,10.60
2012,07,07,04,19,10.60
2012,07,07,04,20,10.60
2012,07,07,04,21,10.60
2012,07,07,04,22,10.60
2012,07,07,04,23,10.50
2012,07,07,04,24,10.60
2012,07,07,04,25,10.60
2012,07,07,04,26,10.60
2012,07,07,04,27,10.60
2012,07,07,04,28,10.60
2012,07,07,04,29,10.60
2012,07,07,04,30,10.60
2012,07,07,04,31,10.60
2012,07,07,04,32,10.60
2012,07,07,04,33,10.60
2012,07,07,04,34,10.50
2012,07,07,04,35,10.50
2012,07,07,04,36,10.50
2012,07,07,04,37,10.50
2012,07,07,04,38,10.50
2012,07,07,04,39,10.50
2012,07,07,04,40,10.50
2012,07,07,04,41,10.50
2012,07,07,04,42,10.50
2012,07,07,04,43,10.40
2012,07,07,04,44,10.40
2012,07,07,04,45,10.40
2012,07,07,04,46,10.40
2012,07,07,04,47,10.40
2012,07,07,04,48,10.40
2012,07,07,04,49,10.40
2012,07,07,04,50,10.40
2012,07,07,04,51,10.40
2012,07,07,04,52,10.40
2012,07,07,04,53,10.40
2012,07,07,04,54,10.40
2012,07,07,04,55,10.40
2012,07,07,04,56,10.40
2012,07,07,04,57,10.40
2012,07,07,04,58,10.40
2012,07,07,04,59,10.40
2012,07,07,05,00,10.40
2012,07,07,05,01,10.40
2012,07,07,05,02,10.30
2012,07,07,05,03,10.30
2012,07,07,05,04,10.30
2012,07,07,05,05,10.30
2012,07,07,05,06,10.30
2012,07,07,05,07,10.30
2012,07,07,05,08,10.30
2012,07,07,05,09,10.30
2012,07,07,05,10,10.30
2012,07,07,05,11,10.30
2012,07,07,05,12,10.30
2012,07,07,05,13,10.30
2012,07,07,05,14,10.30
2012,07,07,05,15,10.30
2012,07,07,05,16,10.30
2012,07,07,05,17,10.30
2012,07,07,05,18,10.30
2012,07,07,05,19,10.30
2012,07,07,05,20,10.30
2012,07,07,05,21,10.30
2012,07,07,05,22,10.30
2012,07,07,05,23,10.30
2012,07,07,05,24,10.30
2012,07,07,05,25,10.30
2012,07,07,05,26,10.20
2012,07,07,05,27,10.20
2012,07,07,05,28,10.20
2012,07,07,05,29,10.20
2012,07,07,05,30,10.30
2012,07,07,05,31,10.30
2012,07,07,05,32,10.30
2012,07,07,05,33,10.20
2012,07,07,05,34,10.30
2012,07,07,05,35,10.20
2012,07,07,05,36,10.30
2012,07,07,05,37,10.20
2012,07,07,05,38,10.20
2012,07,07,05,39,10.20
2012,07,07,05,40,10.20
2012,07,07,05,41,10.20
2012,07,07,05,42,10.20
2012,07,07,05,43,10.20
2012,07,07,05,44,10.20
2012,07,07,05,45,10.20
2012,07,07,05,46,10.20
2012,07,07,05,47,10.20
2012,07,07,05,48,10.20
2012,07,07,05,49,10.20
2012,07,07,05,50,10.20
2012,07,07,05,51,10.20
2012,07,07,05,52,10.20
2012,07,07,05,53,10.20
2012,07,07,05,54,10.30
2012,07,07,05,55,10.30
2012,07,07,05,56,10.30
2012,07,07,05,57,10.30
2012,07,07,05,58,10.30
2012,07,07,05,59,10.30
2012,07,07,06,00,10.30
2012,07,07,06,01,10.30
2012,07,07,06,02,10.30
2012,07,07,06,03,10.30
2012,07,07,06,04,10.30
2012,07,07,06,05,10.30
2012,07,07,06,06,10.30
2012,07,07,06,07,10.30
2012,07,07,06,08,10.30
2012,07,07,06,09,10.30
2012,07,07,06,10,10.30
2012,07,07,06,11,10.40
2012,07,07,06,12,10.40
2012,07,07,06,13,10.40
2012,07,07,06,14,10.50
2012,07,07,06,15,10.60
2012,07,07,06,16,10.70
2012,07,07,06,17,10.80
2012,07,07,06,18,10.90
2012,07,07,06,19,10.90
2012,07,07,06,20,11.00
2012,07,07,06,21,11.10
2012,07,07,06,22,11.10
2012,07,07,06,23,11.20
2012,07,07,06,24,11.30
2012,07,07,06,25,11.30
2012,07,07,06,26,11.30
2012,07,07,06,27,11.40
2012,07,07,06,28,11.50
2012,07,07,06,29,11.60
2012,07,07,06,30,11.70
2012,07,07,06,31,11.80
2012,07,07,06,32,12.00
2012,07,07,06,33,12.10
2012,07,07,06,34,12.20
2012,07,07,06,35,12.30
2012,07,07,06,36,12.40
2012,07,07,06,37,12.50
2012,07,07,06,38,12.60
2012,07,07,06,39,12.70
2012,07,07,06,40,12.80
2012,07,07,06,41,12.80
2012,07,07,06,42,12.90
2012,07,07,06,43,13.00
2012,07,07,06,44,13.00
2012,07,07,06,45,13.10
2012,07,07,06,46,13.20
2012,07,07,06,47,13.20
2012,07,07,06,48,13.30
2012,07,07,06,49,13.30
2012,07,07,06,50,13.40
2012,07,07,06,51,13.50
2012,07,07,06,52,13.50
2012,07,07,06,53,13.60
2012,07,07,06,54,13.60
2012,07,07,06,55,13.70
2012,07,07,06,56,13.70
2012,07,07,06,57,13.80
2012,07,07,06,58,13.80
2012,07,07,06,59,13.90
2012,07,07,07,00,13.90
2012,07,07,07,01,13.90
2012,07,07,07,02,14.00
2012,07,07,07,03,14.00
2012,07,07,07,04,14.10
2012,07,07,07,05,14.10
2012,07,07,07,06,14.20
2012,07,07,07,07,14.20
2012,07,07,07,08,14.30
2012,07,07,07,09,14.30
2012,07,07,07,10,14.30
2012,07,07,07,11,14.30
2012,07,07,07,12,14.40
2012,07,07,07,13,14.40
2012,07,07,07,14,14.50
2012,07,07,07,15,14.50
2012,07,07,07,16,14.60
2012,07,07,07,17,14.60
2012,07,07,07,18,14.70
2012,07,07,07,19,14.70
2012,07,07,07,20,14.70
2012,07,07,07,21,14.70
2012,07,07,07,22,14.80
2012,07,07,07,23,14.80
2012,07,07,07,24,14.80
2012,07,07,07,25,14.80
2012,07,07,07,26,14.80
2012,07,07,07,27,14.80
2012,07,07,07,28,14.90
2012,07,07,07,29,14.90
2012,07,07,07,30,14.90
2012,07,07,07,31,14.90
2012,07,07,07,32,14.90
2012,07,07,07,33,14.90
2012,07,07,07,34,15.00
2012,07,07,07,35,15.00
2012,07,07,07,36,15.00
2012,07,07,07,37,15.00
2012,07,07,07,38,15.00
2012,07,07,07,39,15.10
2012,07,07,07,40,15.10
2012,07,07,07,41,15.10
2012,07,07,07,42,15.10
2012,07,07,07,43,15.10
2012,07,07,07,44,15.20
2012,07,07,07,45,15.20
2012,07,07,07,46,15.20
2012,07,07,07,47,15.20
2012,07,07,07,48,15.30
2012,07,07,07,49,15.30
2012,07,07,07,50,15.30
2012,07,07,07,51,15.30
2012,07,07,07,52,15.30
2012,07,07,07,53,15.40
2012,07,07,07,54,15.40
2012,07,07,07,55,15.40
2012,07,07,07,56,15.50
2012,07,07,07,57,15.50
2012,07,07,07,58,15.50
2012,07,07,07,59,15.60
2012,07,07,08,00,15.60
2012,07,07,08,01,15.60
2012,07,07,08,02,15.60
2012,07,07,08,03,15.60
2012,07,07,08,04,15.60
2012,07,07,08,05,15.60
2012,07,07,08,06,15.60
2012,07,07,08,07,15.60
2012,07,07,08,08,15.60
2012,07,07,08,09,15.60
2012,07,07,08,10,15.60
2012,07,07,08,11,15.60
2012,07,07,08,12,15.60
2012,07,07,08,13,15.60
2012,07,07,08,14,15.60
2012,07,07,08,15,15.60
2012,07,07,08,16,15.50
2012,07,07,08,17,15.50
2012,07,07,08,18,15.50
2012,07,07,08,19,15.50
2012,07,07,08,20,15.50
2012,07,07,08,21,15.50
2012,07,07,08,22,15.50
2012,07,07,08,23,15.50
2012,07,07,08,24,15.50
2012,07,07,08,25,15.50
2012,07,07,08,26,15.50
2012,07,07,08,27,15.50
2012,07,07,08,28,15.50
2012,07,07,08,29,15.50
2012,07,07,08,30,15.60
2012,07,07,08,31,15.60
2012,07,07,08,32,15.70
2012,07,07,08,33,15.70
2012,07,07,08,34,15.70
2012,07,07,08,35,15.70
2012,07,07,08,36,15.70
2012,07,07,08,37,15.80
2012,07,07,08,38,15.80
2012,07,07,08,39,15.80
2012,07,07,08,40,15.80
2012,07,07,08,41,15.80
2012,07,07,08,42,15.90
2012,07,07,08,43,15.90
2012,07,07,08,44,15.90
2012,07,07,08,45,16.00
2012,07,07,08,46,16.00
2012,07,07,08,47,16.10
2012,07,07,08,48,16.20
2012,07,07,08,49,16.20
2012,07,07,08,50,16.20
2012,07,07,08,51,16.30
2012,07,07,08,52,16.30
2012,07,07,08,53,16.40
2012,07,07,08,54,16.40
2012,07,07,08,55,16.40
2012,07,07,08,56,16.50
2012,07,07,08,57,16.50
2012,07,07,08,58,16.60
2012,07,07,08,59,16.60
2012,07,07,09,00,16.60
2012,07,07,09,01,16.70
2012,07,07,09,02,16.80
2012,07,07,09,03,16.80
2012,07,07,09,04,16.90
2012,07,07,09,05,16.90
2012,07,07,09,06,17.00
2012,07,07,09,07,17.10
2012,07,07,09,08,17.10
2012,07,07,09,09,17.20
2012,07,07,09,10,17.20
2012,07,07,09,11,17.30
2012,07,07,09,12,17.30
2012,07,07,09,13,17.30
2012,07,07,09,14,17.40
2012,07,07,09,15,17.40
2012,07,07,09,16,17.40
2012,07,07,09,17,17.40
2012,07,07,09,18,17.50
2012,07,07,09,19,17.50
2012,07,07,09,20,17.60
2012,07,07,09,21,17.60
2012,07,07,09,22,17.60
2012,07,07,09,23,17.70
2012,07,07,09,24,17.70
2012,07,07,09,25,17.70
2012,07,07,09,26,17.70
2012,07,07,09,27,17.70
2012,07,07,09,28,17.70
2012,07,07,09,29,17.80
2012,07,07,09,30,17.80
2012,07,07,09,31,17.80
2012,07,07,09,32,17.80
2012,07,07,09,33,17.90
2012,07,07,09,34,18.00
2012,07,07,09,35,18.00
2012,07,07,09,36,18.10
2012,07,07,09,37,18.10
2012,07,07,09,38,18.20
2012,07,07,09,39,18.30
2012,07,07,09,40,18.40
2012,07,07,09,41,18.40
2012,07,07,09,42,18.50
2012,07,07,09,43,18.60
2012,07,07,09,44,18.70
2012,07,07,09,45,18.70
2012,07,07,09,46,18.80
2012,07,07,09,47,19.00
2012,07,07,09,48,19.10
2012,07,07,09,49,19.20
2012,07,07,09,50,19.30
2012,07,07,09,51,19.40
2012,07,07,09,52,19.50
2012,07,07,09,53,19.50
2012,07,07,09,54,19.60
2012,07,07,09,55,19.70
2012,07,07,09,56,19.80
2012,07,07,09,57,19.80
2012,07,07,09,58,19.90
2012,07,07,09,59,20.00
2012,07,07,10,00,20.10
2012,07,07,10,01,20.10
2012,07,07,10,02,20.20
2012,07,07,10,03,20.30
2012,07,07,10,04,20.40
2012,07,07,10,05,20.40
2012,07,07,10,06,20.50
2012,07,07,10,07,20.60
2012,07,07,10,08,20.70
2012,07,07,10,09,20.70
2012,07,07,10,10,20.70
2012,07,07,10,11,20.70
2012,07,07,10,12,20.80
2012,07,07,10,13,20.80
2012,07,07,10,14,20.90
2012,07,07,10,15,21.00
2012,07,07,10,16,21.00
2012,07,07,10,17,21.10
2012,07,07,10,18,21.20
2012,07,07,10,19,21.20
2012,07,07,10,20,21.20
2012,07,07,10,21,21.30
2012,07,07,10,22,21.30
2012,07,07,10,23,21.30
2012,07,07,10,24,21.30
2012,07,07,10,25,21.30
2012,07,07,10,26,21.30
2012,07,07,10,27,21.30
2012,07,07,10,28,21.20
2012,07,07,10,29,21.10
2012,07,07,10,30,21.00
2012,07,07,10,31,20.90
2012,07,07,10,32,20.80
2012,07,07,10,33,20.70
2012,07,07,10,34,20.60
2012,07,07,10,35,20.50
2012,07,07,10,36,20.50
2012,07,07,10,37,20.40
2012,07,07,10,38,20.40
2012,07,07,10,39,20.30
2012,07,07,10,40,20.20
2012,07,07,10,41,20.10
2012,07,07,10,42,20.00
2012,07,07,10,43,20.00
2012,07,07,10,44,19.90
2012,07,07,10,45,19.90
2012,07,07,10,46,20.00
2012,07,07,10,47,20.00
2012,07,07,10,48,19.90
2012,07,07,10,49,19.90
2012,07,07,10,50,19.90
2012,07,07,10,51,19.90
2012,07,07,10,52,19.90
2012,07,07,10,53,19.90
2012,07,07,10,54,20.00
2012,07,07,10,55,20.00
2012,07,07,10,56,20.10
2012,07,07,10,57,20.10
2012,07,07,10,58,20.10
2012,07,07,10,59,20.10
2012,07,07,11,00,20.10
2012,07,07,11,01,20.10
2012,07,07,11,02,20.10
2012,07,07,11,03,20.10
2012,07,07,11,04,20.20
2012,07,07,11,05,20.20
2012,07,07,11,06,20.30
2012,07,07,11,07,20.30
2012,07,07,11,08,20.40
2012,07,07,11,09,20.40
2012,07,07,11,10,20.50
2012,07,07,11,11,20.60
2012,07,07,11,12,20.60
2012,07,07,11,13,20.70
2012,07,07,11,14,20.70
2012,07,07,11,15,20.70
2012,07,07,11,16,20.70
2012,07,07,11,17,20.70
2012,07,07,11,18,20.70
2012,07,07,11,19,20.60
2012,07,07,11,20,20.60
2012,07,07,11,21,20.60
2012,07,07,11,22,20.60
2012,07,07,11,23,20.70
2012,07,07,11,24,20.70
2012,07,07,11,25,20.70
2012,07,07,11,26,20.70
2012,07,07,11,27,20.70
2012,07,07,11,28,20.70
2012,07,07,11,29,20.70
2012,07,07,11,30,20.70
2012,07,07,11,31,20.80
2012,07,07,11,32,20.80
2012,07,07,11,33,20.90
2012,07,07,11,34,20.90
2012,07,07,11,35,20.90
2012,07,07,11,36,20.90
2012,07,07,11,37,21.00
2012,07,07,11,38,21.10
2012,07,07,11,39,21.20
2012,07,07,11,40,21.20
2012,07,07,11,41,21.20
2012,07,07,11,42,21.20
2012,07,07,11,43,21.30
2012,07,07,11,44,21.30
2012,07,07,11,45,21.40
2012,07,07,11,46,21.40
2012,07,07,11,47,21.40
2012,07,07,11,48,21.40
2012,07,07,11,49,21.30
2012,07,07,11,50,21.30
2012,07,07,11,51,21.30
2012,07,07,11,52,21.30
2012,07,07,11,53,21.30
2012,07,07,11,54,21.30
2012,07,07,11,55,21.30
2012,07,07,11,56,21.40
2012,07,07,11,57,21.40
2012,07,07,11,58,21.50
2012,07,07,11,59,21.50
2012,07,07,12,00,21.50
2012,07,07,12,01,21.50
2012,07,07,12,02,21.60
2012,07,07,12,03,21.60
2012,07,07,12,04,21.60
2012,07,07,12,05,21.60
2012,07,07,12,06,21.70
2012,07,07,12,07,21.70
2012,07,07,12,08,21.70
2012,07,07,12,09,21.70
2012,07,07,12,10,21.80
2012,07,07,12,11,21.80
2012,07,07,12,12,21.80
2012,07,07,12,13,21.80
2012,07,07,12,14,21.80
2012,07,07,12,15,21.90
2012,07,07,12,16,21.90
2012,07,07,12,17,21.90
2012,07,07,12,18,22.00
2012,07,07,12,19,22.00
2012,07,07,12,20,22.10
2012,07,07,12,21,22.10
2012,07,07,12,22,22.10
2012,07,07,12,23,22.20
2012,07,07,12,24,22.20
2012,07,07,12,25,22.20
2012,07,07,12,26,22.20
2012,07,07,12,27,22.10
2012,07,07,12,28,22.10
2012,07,07,12,29,22.00
2012,07,07,12,30,21.90
2012,07,07,12,31,21.90
2012,07,07,12,32,21.80
2012,07,07,12,33,21.80
2012,07,07,12,34,21.70
2012,07,07,12,35,21.70
2012,07,07,12,36,21.70
2012,07,07,12,37,21.70
2012,07,07,12,38,21.70
2012,07,07,12,39,21.60
2012,07,07,12,40,21.60
2012,07,07,12,41,21.70
2012,07,07,12,42,21.70
2012,07,07,12,43,21.70
2012,07,07,12,44,21.70
2012,07,07,12,45,21.70
2012,07,07,12,46,21.70
2012,07,07,12,47,21.70
2012,07,07,12,48,21.70
2012,07,07,12,49,21.70
2012,07,07,12,50,21.70
2012,07,07,12,51,21.80
2012,07,07,12,52,21.80
2012,07,07,12,53,21.80
2012,07,07,12,54,21.80
2012,07,07,12,55,21.80
2012,07,07,12,56,21.90
2012,07,07,12,57,21.90
2012,07,07,12,58,21.90
2012,07,07,12,59,21.90
2012,07,07,13,00,21.90
2012,07,07,13,01,21.90
2012,07,07,13,02,21.90
2012,07,07,13,03,21.90
2012,07,07,13,04,21.90
2012,07,07,13,05,21.90
2012,07,07,13,06,21.90
2012,07,07,13,07,21.90
2012,07,07,13,08,21.90
2012,07,07,13,09,21.90
2012,07,07,13,10,21.90
2012,07,07,13,11,21.90
2012,07,07,13,12,21.90
2012,07,07,13,13,21.90
2012,07,07,13,14,21.90
2012,07,07,13,15,22.00
2012,07,07,13,16,22.00
2012,07,07,13,17,22.10
2012,07,07,13,18,22.10
2012,07,07,13,19,22.20
2012,07,07,13,20,22.20
2012,07,07,13,21,22.20
2012,07,07,13,22,22.30
2012,07,07,13,23,22.30
2012,07,07,13,24,22.40
2012,07,07,13,25,22.40
2012,07,07,13,26,22.50
2012,07,07,13,27,22.40
2012,07,07,13,28,22.40
2012,07,07,13,29,22.40
2012,07,07,13,30,22.40
2012,07,07,13,31,22.30
2012,07,07,13,32,22.30
2012,07,07,13,33,22.30
2012,07,07,13,34,22.30
2012,07,07,13,35,22.30
2012,07,07,13,36,22.30
2012,07,07,13,37,22.30
2012,07,07,13,38,22.30
2012,07,07,13,39,22.30
2012,07,07,13,40,22.40
2012,07,07,13,41,22.40
2012,07,07,13,42,22.40
2012,07,07,13,43,22.40
2012,07,07,13,44,22.40
2012,07,07,13,45,22.30
2012,07,07,13,46,22.40
2012,07,07,13,47,22.40
2012,07,07,13,48,22.30
2012,07,07,13,49,22.30
2012,07,07,13,50,22.30
2012,07,07,13,51,22.40
2012,07,07,13,52,22.50
2012,07,07,13,53,22.50
2012,07,07,13,54,22.60
2012,07,07,13,55,22.60
2012,07,07,13,56,22.60
2012,07,07,13,57,22.60
2012,07,07,13,58,22.50
2012,07,07,13,59,22.60
2012,07,07,14,00,22.60
2012,07,07,14,01,22.50
2012,07,07,14,02,22.50
2012,07,07,14,03,22.50
2012,07,07,14,04,22.40
2012,07,07,14,05,22.40
2012,07,07,14,06,22.40
2012,07,07,14,07,22.40
2012,07,07,14,08,22.30
2012,07,07,14,09,22.30
2012,07,07,14,10,22.20
2012,07,07,14,11,22.20
2012,07,07,14,12,22.20
2012,07,07,14,13,22.20
2012,07,07,14,14,22.20
2012,07,07,14,15,22.20
2012,07,07,14,16,22.20
2012,07,07,14,17,22.30
2012,07,07,14,18,22.30
2012,07,07,14,19,22.30
2012,07,07,14,20,22.30
2012,07,07,14,21,22.40
2012,07,07,14,22,22.40
2012,07,07,14,23,22.40
2012,07,07,14,24,22.40
2012,07,07,14,25,22.40
2012,07,07,14,26,22.50
2012,07,07,14,27,22.50
2012,07,07,14,28,22.50
2012,07,07,14,29,22.60
2012,07,07,14,30,22.60
2012,07,07,14,31,22.60
2012,07,07,14,32,22.70
2012,07,07,14,33,22.70
2012,07,07,14,34,22.70
2012,07,07,14,35,22.70
2012,07,07,14,36,22.70
2012,07,07,14,37,22.80
2012,07,07,14,38,22.90
2012,07,07,14,39,22.90
2012,07,07,14,40,23.00
2012,07,07,14,41,23.00
2012,07,07,14,42,23.10
2012,07,07,14,43,23.10
2012,07,07,14,44,23.20
2012,07,07,14,45,23.20
2012,07,07,14,46,23.20
2012,07,07,14,47,23.30
2012,07,07,14,48,23.30
2012,07,07,14,49,23.40
2012,07,07,14,50,23.40
2012,07,07,14,51,23.40
2012,07,07,14,52,23.50
2012,07,07,14,53,23.50
2012,07,07,14,54,23.60
2012,07,07,14,55,23.60
2012,07,07,14,56,23.70
2012,07,07,14,57,23.70
2012,07,07,14,58,23.70
2012,07,07,14,59,23.60
2012,07,07,15,00,23.60
2012,07,07,15,01,23.50
2012,07,07,15,02,23.50
2012,07,07,15,03,23.40
2012,07,07,15,04,23.30
2012,07,07,15,05,23.30
2012,07,07,15,06,23.30
2012,07,07,15,07,23.30
2012,07,07,15,08,23.30
2012,07,07,15,09,23.30
2012,07,07,15,10,23.40
2012,07,07,15,11,23.40
2012,07,07,15,12,23.40
2012,07,07,15,13,23.40
2012,07,07,15,14,23.40
2012,07,07,15,15,23.40
2012,07,07,15,16,23.40
2012,07,07,15,17,23.40
2012,07,07,15,18,23.50
2012,07,07,15,19,23.50
2012,07,07,15,20,23.60
2012,07,07,15,21,23.60
2012,07,07,15,22,23.60
2012,07,07,15,23,23.60
2012,07,07,15,24,23.60
2012,07,07,15,25,23.50
2012,07,07,15,26,23.50
2012,07,07,15,27,23.50
2012,07,07,15,28,23.50
2012,07,07,15,29,23.50
2012,07,07,15,30,23.40
2012,07,07,15,31,23.40
2012,07,07,15,32,23.30
2012,07,07,15,33,23.30
2012,07,07,15,34,23.20
2012,07,07,15,35,23.20
2012,07,07,15,36,23.20
2012,07,07,15,37,23.20
2012,07,07,15,38,23.20
2012,07,07,15,39,23.10
2012,07,07,15,40,23.10
2012,07,07,15,41,23.00
2012,07,07,15,42,22.90
2012,07,07,15,43,22.80
2012,07,07,15,44,22.80
2012,07,07,15,45,22.80
2012,07,07,15,46,22.80
2012,07,07,15,47,22.90
2012,07,07,15,48,22.90
2012,07,07,15,49,22.90
2012,07,07,15,50,23.00
2012,07,07,15,51,23.10
2012,07,07,15,52,23.20
2012,07,07,15,53,23.20
2012,07,07,15,54,23.20
2012,07,07,15,55,23.30
2012,07,07,15,56,23.30
2012,07,07,15,57,23.30
2012,07,07,15,58,23.40
2012,07,07,15,59,23.40
2012,07,07,16,00,23.50
2012,07,07,16,01,23.60
2012,07,07,16,02,23.60
2012,07,07,16,03,23.60
2012,07,07,16,04,23.60
2012,07,07,16,05,23.60
2012,07,07,16,06,23.60
2012,07,07,16,07,23.60
2012,07,07,16,08,23.60
2012,07,07,16,09,23.70
2012,07,07,16,10,23.70
2012,07,07,16,11,23.70
2012,07,07,16,12,23.70
2012,07,07,16,13,23.70
2012,07,07,16,14,23.70
2012,07,07,16,15,23.70
2012,07,07,16,16,23.70
2012,07,07,16,17,23.70
2012,07,07,16,18,23.70
2012,07,07,16,19,23.70
2012,07,07,16,20,23.60
2012,07,07,16,21,23.60
2012,07,07,16,22,23.60
2012,07,07,16,23,23.60
2012,07,07,16,24,23.60
2012,07,07,16,25,23.60
2012,07,07,16,26,23.70
2012,07,07,16,27,23.70
2012,07,07,16,28,23.80
2012,07,07,16,29,23.80
2012,07,07,16,30,23.80
2012,07,07,16,31,23.80
2012,07,07,16,32,23.80
2012,07,07,16,33,23.70
2012,07,07,16,34,23.70
2012,07,07,16,35,23.70
2012,07,07,16,36,23.70
2012,07,07,16,37,23.60
2012,07,07,16,38,23.40
2012,07,07,16,39,23.30
2012,07,07,16,40,23.20
2012,07,07,16,41,23.10
2012,07,07,16,42,22.90
2012,07,07,16,43,22.90
2012,07,07,16,44,22.80
2012,07,07,16,45,22.70
2012,07,07,16,46,22.60
2012,07,07,16,47,22.40
2012,07,07,16,48,22.30
2012,07,07,16,49,22.10
2012,07,07,16,50,22.00
2012,07,07,16,51,21.90
2012,07,07,16,52,21.80
2012,07,07,16,53,21.80
2012,07,07,16,54,21.80
2012,07,07,16,55,21.90
2012,07,07,16,56,21.90
2012,07,07,16,57,22.00
2012,07,07,16,58,22.10
2012,07,07,16,59,22.20
2012,07,07,17,00,22.30
2012,07,07,17,01,22.40
2012,07,07,17,02,22.50
2012,07,07,17,03,22.60
2012,07,07,17,04,22.70
2012,07,07,17,05,22.80
2012,07,07,17,06,22.80
2012,07,07,17,07,22.90
2012,07,07,17,08,23.00
2012,07,07,17,09,23.10
2012,07,07,17,10,23.20
2012,07,07,17,11,23.30
2012,07,07,17,12,23.40
2012,07,07,17,13,23.50
2012,07,07,17,14,23.50
2012,07,07,17,15,23.60
2012,07,07,17,16,23.70
2012,07,07,17,17,23.70
2012,07,07,17,18,23.80
2012,07,07,17,19,23.80
2012,07,07,17,20,23.90
2012,07,07,17,21,23.90
2012,07,07,17,22,24.00